Regional Weather Roundup
Issued by NWS

Home | Current Version | Previous Version | Graphics & Text | Print | Product List | Glossary On
Versions: 1 2 3 4 5 6 7 8 9 10 11 12 13 14 15 16 17 18 19 20 21 22 23 24 25 26 27 28 29 30 31 32 33 34 35 36 37 38 39 40 41 42 43 44 45 46 47 48 49 50
000
ASUS43 KLOT 251421
RWRIL

ILLINOIS REGIONAL WEATHER ROUNDUP
NATIONAL WEATHER SERVICE CHICAGO/ROMEOVILLE IL
900 AM CDT MON MAY 25 2015

NOTE: "FAIR" INDICATES FEW OR NO CLOUDS BELOW 12,000 FEET WITH NO
SIGNIFICANT WEATHER AND/OR OBSTRUCTIONS TO VISIBILITY.

* THESE STATIONS ARE NOT UNDER NWS QUALITY CONTROL. THEY ALSO MAY NOT
  REPORT WEATHER SUCH AS PRECIPITATION OR FOG.

ILZ001-002-007-009-015-016-024-251500-
NORTHWEST ILLINOIS

CITY           SKY/WX    TMP DP  RH WIND       PRES   REMARKS
MOLINE         CLOUDY    66  62  87 SW10      29.85R
STERLING*      CLOUDY    70  63  78 W14       29.85R
SAVANNA*       CLOUDY    68  63  82 SW10      29.83R
$$

ILZ003-004-008-010-011-017-018-251500-
NORTH CENTRAL ILLINOIS

CITY           SKY/WX    TMP DP  RH WIND       PRES   REMARKS
ROCKFORD       CLOUDY    68  61  78 SW12      29.84R
FREEPORT*      PTSUNNY   67  62  85 SW13G20   29.83R
ROCHELLE*      CLOUDY    67  64  91 SW22      29.85R
DE KALB*       LGT RAIN  64  63  94 SW16G25   29.86R
PERU*          CLOUDY    69  65  86 SW13      29.87R
$$

ILZ005-006-012>014-019>023-251500-
NORTHEAST ILLINOIS

CITY           SKY/WX    TMP DP  RH WIND       PRES   REMARKS
CHICAGO-OHARE  LGT RAIN  69  64  84 SW18G30   29.85R
CHICAGO-MIDWAY PTSUNNY   75  65  70 S15G25    29.86R
AURORA         CLOUDY    69  64  84 SW20G25   29.86R HAZE
LANSING*       CLOUDY    72  64  75 S22G29    29.89R
JOLIET*        CLOUDY    74  66  76 SW17G28   29.87R
WAUKEGAN       PTSUNNY   72  63  73 S25G33    29.81S
DUPAGE AIRPORT LGT RAIN  69  64  84 S23G35    29.85R
KANKAKEE*      CLOUDY    73  65  78 S25G35    29.91R
WHEELING       CLOUDY    72  62  71 S23G33    29.85R
MORRIS*        HVY RAIN  69  64  84 SW20G32   29.86R
ROMEOVILLE*    CLOUDY    72  64  75 SW26G33   29.86S
NORTHERLY ISL    N/A     73  62  68 S18         N/A
$$

LMZ740>746-251500-
SOUTHERN LAKE MICHIGAN

STATION/POSITION SKY/WX   TEMP    WIND        PRES    VSBY  WAVE
                          AIR SEA DIR/SP/G                  HT/PER
                          (F)     (DEG/KT/KT) (MB)    (MI)  (FT/S)
SOUTHERN BUOY              47 38  180/ 14/ 14 1011.3R         2/ 4
HARRISON CRIB              71     200/ 27/ 33   N/A
BURNHAM HARBOR             73     210/ 18/ 24   N/A
CALUMET HARBOR             71     190/ 13/ 19   N/A
BURNS HARBOR               72     200/ 17/ 26 1012.5R
MICHIGAN CITY              72     170/ 19/ 25   N/A
MICHIGAN CITY 6N           67 52  210/ 16/ 25   N/A           2/ 3
ST. JOSEPH                 64 54  220/ 16/ 17   N/A           3/ 3
$$

ILZ025>027-034>036-040-047-049-050-058-095>099-251500-
WEST-CENTRAL ILLINOIS

CITY           SKY/WX    TMP DP  RH WIND       PRES   REMARKS
QUINCY         CLOUDY    65  62  90 SW13      29.96R
GALESBURG*     CLOUDY    65  62  91 SW12      29.89R
MACOMB*        CLOUDY    65  64  93 SW14      29.93R
JACKSONVILLE*  CLOUDY    69  64  82 SW14G23   29.96R
PITTSFIELD*    CLOUDY    66  62  85 SW15      29.99R
$$

ILZ028>032-037-038-041>044-048-051>054-059>061-251500-
CENTRAL ILLINOIS

CITY           SKY/WX    TMP DP  RH WIND       PRES   REMARKS
PONTIAC        CLOUDY    71  67  85 S22G28    29.90R
BLOOMINGTON    PTSUNNY   71  65  81 SW31G40   29.92R
DECATUR        CLOUDY    72  64  76 SW23G36   29.95R
PEORIA         CLOUDY    69  64  84 SW18G26   29.91R
LACON*         CLOUDY    67  65  91 SW9       29.87R
LINCOLN*       CLOUDY    70  63  79 SW10G21   29.91R
SPRINGFIELD    CLOUDY    69  62  78 SW16G25   29.95R
TAYLORVILLE    CLOUDY    70  63  78 SW15G26   29.98R
$$

ILZ033-039-045-046-055>057-062-063-251500-
EAST-CENTRAL ILLINOIS

CITY           SKY/WX    TMP DP  RH WIND       PRES   REMARKS
CHAMPAIGN      PTSUNNY   77  65  66 S26G36    29.95R
DANVILLE*      CLOUDY    71  66  86 S20G25    29.95R
RANTOUL*       CLOUDY    75  65  70 SW24G35   29.94S
MATTOON        PTSUNNY   71  66  84 S13G22    29.99R
PARIS*         CLOUDY    72  66  81 S23G30    30.02R
$$

ILZ079-100>102-251500-
SOUTHWEST ILLINOIS

CITY           SKY/WX    TMP DP  RH WIND       PRES   REMARKS
BELLEVILLE     CLOUDY    72  70  92 SW12      30.00R
CAHOKIA*       CLOUDY    73  63  70 SW6       30.00R
SPARTA*        CLOUDY    71  67  87 SW13      30.04R
$$

ILZ064>066-069>071-074>076-080>082-084>086-088>090-092>094-251500-
SOUTH-CENTRAL ILLINOIS

CITY           SKY/WX    TMP DP  RH WIND       PRES   REMARKS
CARBONDALE     CLOUDY    70  65  84 S17G24    30.05R
CAIRO*         RAIN      68  67  98 SE9       30.07S
EFFINGHAM*     CLOUDY    70  65  84 SE8G18    30.03R
MARION         CLOUDY    70  66  88 S12       30.07R
MT. VERNON     CLOUDY    72  64  78 S14       30.06R
CENTRALIA*     CLOUDY    73  66  79 S14       30.03R
SALEM*         CLOUDY    72  67  84 S12G18    30.03R
METROPOLIS*    DRIZZLE   69  69 100 S6        30.08S
$$

ILZ067-068-072-073-078-083-087-091-251500-
SOUTHEAST ILLINOIS

CITY           SKY/WX    TMP DP  RH WIND       PRES   REMARKS
LAWRENCEVILLE  CLOUDY    69  66  90 S18       30.06R
FLORA*         CLOUDY    70  66  87 S14G20    30.04R
FAIRFIELD*     CLOUDY    69  66  90 S13G18    30.05R
HARRISBURG*    CLOUDY    71  68  92 S13       30.08R
ROBINSON*      CLOUDY    69  65  89 S17       30.06R
CARMI*         CLOUDY    70  64  83 S13G20    30.07R
$$

ABBREVIATIONS USED IN REMARKS
   TC - TEMPERATURE IN CELSIUS
  WCI - WIND CHILL INDEX
   HX - HEAT INDEX
  VSB - VISIBILITY
$$




USA.gov is the U.S. government's official web portal to all federal, state and local government web resources and services.